Retour au catalogue

THORAD AGENA D DEB

ActifSSO
NORAD 4821·DEBRIS·🇺🇸 United States

Lancé Apr 8, 1970 depuis Vandenberg Space Force Base

Loading…

Prochains Passages

TLE

Source: Space-Track
1 04821U 70025EC  26224.65150356  .00000125  00000-0  23273-3 0  9994
2 04821 100.0124 270.0162 0010667  87.1870  42.9013 13.59306257783888

Suivez THORAD AGENA D DEB en temps réel avec AllMySat

Download on the App Store